CAPE
2298 2144 2313 2507 2574 2926 2816 3153 3656 3292 2647 2500 2127 2052 1992 2118 2068 1819 1957 1682 1549 1434 1164 950 1166 1042 795 578 245 153 226 623 267 374 250 619 1075 459 675 976 1177 1555 1352
2587 2750 2783 2792 3040 3271 2642 2004 1977 1623 1256 1317 1442 1467 1504 1351 1331 1111 944 720 766 830 955 1043 988 1300 1005 1658 1835 1512 918 1400 813 1484 933 236 425 754 604 1253 1238 1203 769
3133 3060 3265 2795 2181 1370 956 665 526 417 368 352 372 477 287 375 444 711 691 837 676 784 791 774 758 782 909 1213 1748 1559 2065 1584 889 681 739 408 198 257 498 1144 788 784 589
3223 2868 2383 1642 1052 705 386 42 36 100 180 156 82 61 19 11 20 29 64 239 226 204 109 273 4 13 14 92 421 1136 1117 1268 1716 1351 983 657 718 597 191 190 331 285 91
2338 1556 1126 819 442 250 9 10 4 5 18 22 15 9 3 1 1 12 10 11 10 11 14 20 14 15 1 3 6 15 116 873 1132 1153 1187 820 211 72 115 0 0 0 0
1400 836 405 172 5 4 8 14 17 13 13 11 7 8 3 0 0 0 13 13 16 7 7 17 24 15 6 0 0 0 0 8 33 12 7 3 3 7 0 1 0 0 0
406 270 147 127 11 36 13 8 7 8 10 6 7 2 4 3 0 0 0 11 9 14 15 10 3 7 11 45 15 18 5 2 7 37 20 6 3 0 0 0 0 5 4
322 277 203 221 83 14 8 7 7 9 10 13 8 4 0 0 0 0 0 7 7 5 7 9 6 2 0 4 17 15 16 8 3 6 18 20 28 20 67 58 46 5 7
346 270 296 178 61 9 8 7 6 4 5 8 13 18 8 0 0 0 0 11 31 26 26 0 5 4 0 0 34 27 44 35 0 0 0 0 0 0 0 4 28 7 66
242 211 195 106 8 5 7 6 8 8 9 6 7 3 0 0 0 0 0 9 7 17 31 18 0 0 0 0 28 45 43 38 42 65 94 26 21 18 0 57 195 137 151
119 119 62 10 10 10 11 9 4 1 5 5 2 1 0 0 0 0 0 0 0 0 0 0 0 0 0 0 0 0 0 0 56 59 46 25 24 57 299 241 238 204 182
113 44 10 8 3 6 4 4 1 3 3 1 6 9 0 0 0 0 0 0 0 0 0 0 0 0 0 0 0 0 0 0 6 31 15 27 41 41 41 0 0 0 0
30 12 8 8 6 1 0 0 0 1 0 0 0 0 0 0 0 0 0 0 0 0 0 0 0 0 0 0 0 0 2 1 4 5 10 18 63 48 37 49 77 56 3
23 5 10 10 5 0 0 0 0 0 0 0 0 0 0 0 0 0 0 0 0 0 0 5 0 0 1 7 6 8 16 8 15 13 20 33 37 36 66 61 42 52 49
11 4 8 2 0 0 0 0 0 0 0 0 0 0 0 0 0 0 0 0 0 0 0 14 8 7 7 7 9 13 17 17 20 18 13 21 24 29 49 59 66 92 81
1 1 0 4 0 0 0 0 0 0 0 0 0 0 0 0 0 0 0 0 0 0 0 4 5 6 10 8 8 8 9 10 6 6 11 17 21 32 61 17 29 40 72
0 0 0 2 0 0 0 0 0 0 0 0 0 0 0 0 0 0 0 0 0 0 8 6 6 12 13 10 4 3 1 6 54 6 8 13 13 19 21 33 42 52 64
0 0 0 2 2 0 0 0 0 0 0 0 0 0 0 0 0 0 0 0 1 1 6 3 7 9 9 3 1 2 3 6 4 4 3 1 4 13 20 29 35 76 44
0 0 0 2 5 0 0 0 0 0 0 0 0 0 0 0 0 0 0 2 7 8 7 5 9 7 9 3 0 3 7 4 2 2 1 2 27 37 33 24 24 4 16
0 0 0 5 6 3 3 0 0 0 2 0 0 0 0 0 0 0 14 11 8 7 9 14 14 14 10 4 1 1 1 1 2 0 1 13 28 30 38 30 34 39 32
9 0 0 5 8 5 7 6 7 2 2 3 0 0 0 0 0 2 8 14 16 11 22 26 21 12 6 3 1 1 1 1 1 4 14 27 25 49 32 29 49 38 33
18 43 1 12 1 9 5 17 9 6 1 3 0 0 0 0 0 8 15 17 21 15 24 25 9 8 2 0 0 1 1 1 4 9 16 23 35 46 51 41 38 37 48
21 79 24 3 18 5 5 0 0 0 0 1 0 0 0 0 2 5 12 19 16 17 26 15 5 4 0 0 0 0 0 0 0 1 15 21 27 38 47 50 46 53 32
36 17 22 12 6 2 0 0 0 0 0 0 0 0 0 0 3 10 9 20 15 21 29 8 10 2 0 0 0 0 0 0 0 0 0 0 0 7 23 30 13 30 16
22 10 5 6 0 0 0 0 0 0 0 0 0 0 0 0 2 6 14 26 16 27 17 6 10 1 1 0 0 0 0 0 0 0 0 0 0 1 15 21 35 18 23
23 4 1 0 0 0 0 0 0 0 0 0 0 0 0 0 5 14 16 19 18 21 9 9 3 1 0 0 0 0 0 0 0 0 0 0 0 26 22 25 13 20 28
CIN
-10 -1 0 0 0 0 0 -7 0 0 -12 -12 -19 -17 -11 0 0 -1 0 0 0 0 0 0 0 -2 -1 0 -11 -17 -13 -25 -19 0 0 -6 -1 -2 0 -1 -7 -5 -30
-5 -12 0 0 0 -17 -25 -58 -36 -41 -54 -40 -25 -17 -10 -9 -3 -1 0 0 0 0 0 0 0 -1 0 0 0 0 0 -6 0 0 0 -23 -3 -4 -4 0 0 -16 -120
-14 0 0 -9 -46 -121 -148 -175 -191 -193 -177 -146 -110 -75 -113 -67 -38 -5 -1 -1 -1 -1 0 0 0 0 0 0 0 0 -2 -9 -33 -11 -3 0 -1 -11 0 0 -1 -4 -5
0 -8 -23 -68 -144 -196 -291 -257 -506 -394 -287 -275 -340 -235 -173 0 -33 -121 -128 -60 -60 -67 -112 -66 0 0 -139 -154 -24 0 0 0 0 -2 -11 -34 -4 -5 -18 -29 -4 -28 -57
-48 -109 -162 -215 -320 -393 -57 0 0 -1 0 -124 0 0 0 0 0 -1 0 0 0 0 0 -61 0 0 0 0 -53 -80 -248 0 0 0 0 -8 -90 -6 -2 0 0 0 0
-147 -255 -379 -490 -2 0 0 0 0 0 0 0 0 0 0 0 0 0 -2 0 0 0 0 0 0 0 -10 0 0 0 0 0 -226 0 0 0 0 0 0 0 0 0 -4
-425 -458 -543 -537 -192 -574 -142 0 0 0 0 0 0 0 0 0 0 0 0 0 0 0 0 0 0 0 0 -62 -13 -13 -15 -7 -5 0 0 0 0 0 0 0 0 -1 0
-436 -433 -459 -393 -490 -435 0 0 0 0 0 0 0 0 0 0 0 0 0 0 0 0 0 0 0 0 0 -1 0 0 0 0 0 0 0 0 0 -1 -68 0 -12 0 -1
-409 -426 -360 -395 -471 0 0 0 0 0 0 0 0 0 0 0 0 0 0 0 0 -2 0 0 0 0 0 0 0 0 0 0 0 0 0 0 0 0 0 0 -6 -11 -4
-478 -445 -397 -413 0 0 0 0 0 0 0 0 0 0 0 0 0 0 0 0 -1 0 0 -2 0 0 0 0 0 0 0 0 0 0 -99 -12 -25 -4 0 -3 -17 -47 -39
-544 -470 -466 0 0 0 0 0 0 0 0 0 0 0 0 0 0 0 0 0 0 0 0 0 0 0 0 0 0 0 0 0 -2 -1 0 0 -1 0 -2 0 0 0 0
-515 -543 -91 0 0 0 0 0 0 0 0 0 0 0 0 0 0 0 0 0 0 0 0 0 0 0 0 0 0 0 0 -17 0 0 -13 -21 -1 0 0 0 0 0 -4
-604 -616 0 0 0 0 0 0 0 0 0 0 0 0 0 0 0 0 0 0 0 0 0 0 0 0 0 0 0 0 -25 0 0 0 0 0 -5 -1 -7 -2 -26 -54 -57
-579 0 0 0 0 0 0 0 0 0 0 0 0 0 0 0 0 0 0 0 0 0 0 -7 0 0 -16 -13 -5 -6 0 0 0 0 0 -1 -1 0 -1 0 0 0 0
-597 -403 -171 0 0 0 0 0 0 0 0 0 0 0 0 0 0 0 0 0 0 0 0 -1 0 0 0 0 0 0 -1 0 0 0 -1 -3 -1 -4 -1 -7 0 0 0
-182 0 0 0 0 0 0 0 0 0 0 0 0 0 0 0 0 0 0 0 0 0 0 0 0 0 0 0 0 0 0 -1 0 0 0 0 0 -1 -7 -3 -19 -6 -2
0 -5 0 -1 0 0 0 0 0 0 0 0 0 0 0 0 0 0 0 0 0 0 0 0 0 0 0 0 0 0 0 0 0 0 0 0 0 0 -1 0 0 0 -2
0 0 0 0 0 0 0 0 0 0 0 0 0 0 0 0 0 0 0 0 0 -3 -1 0 0 0 0 0 0 0 0 0 0 0 0 0 0 0 0 0 0 0 -2
0 0 0 0 0 0 0 0 0 0 0 0 0 0 0 0 0 0 0 -13 0 0 0 0 0 0 0 0 0 0 0 0 0 0 0 0 0 0 0 0 0 -7 -12
0 0 0 0 0 0 0 0 0 0 0 0 0 0 0 0 0 -6 -10 -1 0 0 0 0 0 0 0 0 0 0 0 0 0 0 0 0 0 0 0 -3 0 0 -2
-359 0 0 0 0 0 0 0 0 0 0 0 0 0 0 0 0 0 0 0 0 0 0 0 -1 0 0 0 0 0 0 0 0 0 0 0 -1 0 -1 0 0 -1 0
-337 -306 -104 -225 -1 -1 0 0 0 0 0 0 0 0 0 0 0 0 0 0 0 0 0 0 0 0 0 0 0 0 0 0 0 0 0 0 -1 0 0 0 0 -2 -2
-321 -236 -289 0 -70 -4 -1 0 0 0 0 0 0 0 0 0 0 0 -1 0 0 0 -1 0 0 0 0 0 0 0 0 0 0 0 0 0 0 0 0 0 0 0 0
-296 -262 -246 -236 -22 0 0 0 0 0 0 0 0 0 0 0 0 0 -2 0 0 0 0 0 0 0 0 0 0 0 0 0 0 0 0 0 0 0 0 0 -4 0 0
-305 -267 -194 -229 0 0 0 0 0 0 0 0 0 0 0 0 0 0 -1 0 -1 0 0 0 0 0 -1 0 0 0 0 0 0 0 0 0 0 0 -1 -1 0 0 0
-349 -231 -145 -34 0 0 0 0 0 0 0 0 0 0 0 0 0 -1 0 -1 0 0 -1 0 0 0 0 0 0 0 0 0 0 0 0 0 0 0 0 0 0 0 0
Wind_Speed
10 9 8 9 8 6 5 6 9 9 10 9 8 8 8 7 8 6 7 8 7 7 6 5 7 5 7 7 5 6 6 3 7 9 6 8 5 4 6 7 4 8 3
8 4 5 3 4 13 11 10 10 9 9 8 8 8 8 8 8 6 5 5 5 7 8 7 6 4 6 7 7 7 7 8 7 9 8 8 1 6 5 7 7 7 6
8 7 8 11 10 10 9 9 10 9 9 9 9 9 10 9 9 8 7 10 11 12 11 10 11 11 9 8 8 8 6 6 5 6 8 6 4 4 5 6 3 6 1
11 11 11 12 10 9 11 10 10 10 10 11 11 10 10 10 10 8 9 10 10 9 11 11 11 11 10 10 10 10 8 8 8 5 5 7 6 5 3 4 3 5 8
12 11 10 10 10 12 10 10 10 9 9 8 10 12 12 12 10 9 10 11 11 11 10 10 13 11 16 15 9 11 11 8 7 7 5 4 5 7 6 3 3 2 4
11 12 11 11 10 10 11 11 11 12 11 11 12 12 13 10 16 19 12 12 13 12 11 9 10 14 9 11 12 16 14 11 9 5 4 3 4 3 2 4 6 6 4
12 12 12 12 11 11 11 11 12 12 12 10 12 12 11 10 17 17 15 10 10 10 12 12 11 10 12 10 5 7 11 13 13 8 7 5 2 1 1 2 1 3 4
12 12 12 12 12 11 11 11 10 10 10 10 11 11 10 9 13 13 15 11 10 12 14 13 12 13 14 13 10 10 10 10 10 7 7 6 6 3 6 4 4 4 6
13 12 11 11 12 11 10 10 10 10 9 9 10 10 10 11 17 17 15 7 8 13 11 14 13 12 13 15 9 9 8 7 8 5 5 5 5 5 6 5 3 5 6
12 12 11 11 11 11 10 10 8 8 9 9 10 10 10 11 16 17 16 7 9 7 9 8 13 11 11 13 10 9 9 7 9 8 4 2 4 2 3 6 8 8 7
12 12 11 11 11 10 9 8 8 8 9 9 10 10 11 10 11 12 16 9 8 8 9 8 8 8 10 9 9 8 8 9 4 5 5 5 6 6 7 7 8 7 7
13 12 12 10 9 8 9 8 8 8 8 7 7 8 9 8 6 7 8 9 12 9 8 7 5 2 6 8 8 11 15 10 6 5 5 4 7 8 6 4 4 4 3
13 12 11 10 9 9 8 7 6 3 5 5 5 6 6 8 6 4 1 1 5 5 6 3 7 11 10 8 4 10 7 9 9 8 8 7 1 1 3 5 7 5 4
14 13 11 10 9 8 7 5 5 4 4 4 4 5 6 5 5 5 5 3 1 2 1 5 2 6 9 9 6 6 7 7 7 8 10 8 7 8 8 7 8 8 8
14 12 11 9 9 7 8 7 6 7 7 3 4 5 5 7 5 5 5 6 6 7 11 7 6 7 8 9 9 9 9 10 9 9 11 11 11 11 9 9 10 10 10
14 11 10 9 9 7 8 7 13 11 9 10 8 8 8 10 5 0 4 8 12 8 8 6 7 7 8 8 9 10 10 11 10 10 10 10 9 7 4 9 7 7 8
13 12 10 9 9 9 8 8 8 3 4 4 5 6 8 6 2 5 10 8 14 8 5 7 7 7 8 9 9 9 9 8 8 9 10 10 10 11 11 10 10 9 6
13 11 10 8 8 9 8 8 9 8 8 8 5 4 5 5 6 8 12 7 6 6 4 7 7 7 8 8 8 8 8 8 9 9 9 10 9 9 9 10 10 11 11
12 10 9 8 8 8 8 7 7 7 5 8 9 5 9 11 9 9 9 8 5 5 6 7 7 8 8 8 8 7 8 8 7 8 9 9 9 10 12 12 12 17 13
12 12 10 9 9 8 7 7 6 5 5 5 6 8 10 9 9 10 9 3 5 5 6 6 7 7 7 6 7 7 8 8 9 9 9 10 11 10 10 9 11 10 9
11 11 10 7 8 9 7 7 7 6 6 6 6 8 12 4 5 1 3 3 3 5 4 5 6 6 6 6 6 7 8 8 8 9 9 10 9 7 8 11 9 9 11
11 12 11 10 8 6 8 9 7 7 6 6 5 9 13 5 8 3 2 3 3 3 4 5 5 6 6 7 7 6 7 8 9 10 10 9 8 9 8 11 10 9 9
12 13 13 11 14 13 10 6 6 6 6 7 5 11 9 7 7 1 2 3 3 4 4 5 5 5 6 6 6 6 7 9 9 9 8 9 9 10 9 10 11 10 11
12 11 13 11 8 7 7 8 7 3 5 6 6 6 5 3 4 4 2 3 3 4 4 4 4 4 6 6 7 6 8 7 7 9 12 10 10 10 10 11 11 12 11
12 10 8 8 8 8 8 8 7 7 8 6 5 5 4 5 3 3 4 2 3 4 4 5 4 6 6 7 5 9 6 3 7 8 9 11 12 13 11 9 11 11 12
10 9 10 10 8 9 8 8 7 7 7 7 5 4 4 4 4 4 3 1 4 4 4 4 5 5 7 4 10 7 4 2 6 6 8 9 10 9 9 12 13 10 11
Wind_Direction
203 190 191 187 193 208 240 27 18 20 26 29 27 20 18 11 14 3 342 324 323 311 301 275 275 310 275 291 296 280 280 295 265 260 291 15 352 304 332 319 271 239 201
127 143 144 129 344 56 48 45 44 45 43 34 31 38 34 36 26 22 2 2 329 322 344 340 330 320 301 298 299 294 270 263 292 304 304 284 311 348 313 301 288 88 104
141 149 97 82 70 69 69 64 55 57 58 56 55 46 37 30 17 13 1 24 26 30 22 17 15 4 352 331 320 310 318 311 310 270 282 279 267 277 307 260 322 334 141
89 85 83 75 83 79 73 65 60 54 51 47 42 39 42 36 22 47 37 31 28 33 30 30 34 23 7 352 330 327 327 317 305 307 312 315 290 111 308 331 300 20 22
99 102 99 92 87 81 83 79 77 69 66 64 62 54 49 46 29 27 50 46 43 46 46 48 45 49 43 38 13 2 357 343 334 329 335 342 16 24 11 342 26 356 57
110 103 99 92 91 97 91 90 85 78 68 73 66 64 55 52 4 6 45 55 50 47 35 29 52 35 68 78 66 61 45 22 22 17 24 32 19 36 29 354 356 333 323
112 108 105 110 106 104 101 96 92 88 82 66 65 65 59 65 5 356 353 62 61 46 43 36 32 32 19 8 45 59 65 42 30 41 50 47 47 25 347 307 240 274 299
117 116 122 118 114 108 104 101 97 91 91 84 81 74 69 55 11 359 341 72 72 62 43 29 38 32 19 7 19 27 33 40 24 14 19 16 10 335 316 332 327 299 253
122 122 123 118 115 112 104 102 100 98 91 81 70 61 67 42 9 7 356 78 80 72 63 43 25 31 0 352 3 18 24 45 123 86 38 15 337 331 330 321 328 311 302
127 126 122 119 116 113 107 103 102 97 80 78 67 60 49 48 23 6 359 40 66 54 76 84 47 19 359 356 17 15 13 14 356 6 46 170 315 74 238 288 333 336 347
126 124 121 118 116 116 114 108 97 90 102 96 87 76 68 40 41 14 10 44 16 39 46 54 42 1 338 357 348 16 340 304 60 36 34 32 24 26 22 8 6 7 350
130 126 125 133 127 120 117 113 109 114 105 110 128 115 95 79 54 45 18 16 4 68 43 52 59 248 291 336 24 333 323 333 5 78 47 6 3 9 45 36 59 50 79
135 133 130 126 129 131 129 136 137 147 121 112 107 95 104 134 121 167 187 308 28 47 58 127 266 282 223 244 267 292 340 17 3 2 3 6 182 353 297 275 196 184 194
143 142 145 146 139 150 165 161 113 101 95 99 97 97 93 82 55 66 86 45 338 187 348 269 349 290 273 284 351 358 5 9 350 359 343 351 344 342 352 337 338 330 312
152 154 157 144 157 159 60 25 80 52 23 72 63 87 115 101 67 39 11 1 357 360 327 317 8 8 6 5 2 2 358 359 12 347 354 341 352 349 348 336 334 342 329
162 166 165 159 162 146 138 112 53 65 51 51 44 39 79 91 120 264 277 282 287 313 307 4 6 6 7 360 355 357 358 358 1 334 341 335 342 325 300 320 345 331 332
172 170 161 167 163 153 157 152 140 104 35 32 38 50 58 97 170 266 277 273 274 295 291 25 6 4 1 3 358 355 357 7 354 352 342 342 343 340 338 339 317 332 315
181 158 168 176 162 169 174 177 162 167 179 169 214 226 182 195 224 247 266 289 271 205 318 8 6 3 4 1 358 351 357 346 356 349 337 346 339 334 331 334 332 346 343
177 173 187 171 172 171 180 193 202 183 177 145 141 199 211 223 219 260 291 275 358 4 27 4 6 356 1 358 354 348 336 353 348 342 344 334 329 352 0 353 346 340 324
181 178 204 173 152 180 189 204 204 192 194 185 194 200 166 208 209 216 219 57 335 5 19 2 2 356 350 357 346 343 339 347 354 347 346 328 7 352 348 333 328 321 315
179 168 217 191 170 197 181 222 204 204 214 192 198 91 76 333 315 345 288 29 328 8 5 12 346 347 344 357 348 338 349 348 353 346 335 2 338 344 346 317 316 310 313
183 170 192 191 186 217 215 217 205 208 208 210 158 134 138 224 261 200 205 280 36 8 356 13 351 343 7 349 334 348 339 343 0 351 345 328 327 335 332 322 319 316 315
188 180 174 209 184 198 203 205 216 203 214 218 190 147 179 217 234 181 239 276 40 335 360 18 338 348 9 339 342 345 1 13 354 332 334 323 328 323 322 321 316 317 334
184 187 179 196 200 178 197 204 205 214 244 186 200 222 223 216 231 182 217 258 4 322 343 4 339 5 340 346 334 24 42 15 341 337 342 313 316 315 326 313 306 331 329
181 183 180 187 171 190 197 207 196 193 200 223 205 206 206 217 239 251 254 191 323 302 13 352 333 3 350 333 359 37 77 35 342 327 316 321 307 308 305 304 321 326 324
170 180 167 170 186 197 205 199 198 193 198 205 218 211 207 212 226 242 256 357 273 2 335 341 348 349 333 350 70 94 111 1 332 328 310 305 299 311 315 318 325 315 323